When you browse on this site, cookies collect data to enhance your experience and personalize the content and advertising you see.
Visit our Privacy Policy to learn more. By continuing to use the site, you agree to this use of cookies and data.
  • In Spain
  • List of Countries
  • For 7 days
  • Water Temperature
  • Weather Map
  • Weather Widgets
  • user-avatar
    Login

    Hourly Weather Hurghada

    Today, 20 October, Sunday

    Time Temperature Precipitation Wind Pressure Humidity
    00:00 +22°C° 0 mm 3 mps 684 mmHg 31%
    01:00 +21°C° 0 mm 3 mps 684 mmHg 31%
    02:00 +20°C° 0 mm 2 mps 684 mmHg 31%
    03:00 +20°C° 0 mm 2 mps 684 mmHg 31%
    04:00 +20°C° 0 mm 2 mps 684 mmHg 32%
    05:00 +19°C° 0 mm 2 mps 684 mmHg 32%
    06:00 +21°C° 0 mm 2 mps 684 mmHg 28%
    07:00 +25°C° 0 mm 2 mps 685 mmHg 24%
    08:00 +27°C° 0 mm 3 mps 686 mmHg 20%
    09:00 +28°C° 0 mm 3 mps 686 mmHg 18%
    10:00 +30°C° 0 mm 3 mps 687 mmHg 16%
    11:00 +31°C° 0 mm 3 mps 687 mmHg 14%
    12:00 +33°C° 0 mm 4 mps 686 mmHg 13%
    13:00 +33°C° 0 mm 4 mps 686 mmHg 13%
    14:00 +34°C° 0 mm 5 mps 685 mmHg 13%
    15:00 +32°C° 0 mm 4 mps 685 mmHg 16%
    16:00 +29°C° 0 mm 4 mps 685 mmHg 20%
    17:00 +27°C° 0 mm 3 mps 684 mmHg 24%
    18:00 +26°C° 0 mm 3 mps 684 mmHg 25%
    19:00 +25°C° 0 mm 3 mps 684 mmHg 26%
    20:00 +24°C° 0 mm 3 mps 685 mmHg 28%
    21:00 +22°C° 0 mm 3 mps 684 mmHg 30%
    22:00 +22°C° 0 mm 3 mps 684 mmHg 32%
    23:00 +21°C° 0 mm 3 mps 684 mmHg 34%

    Tomorrow, 21 October, Monday

    Time Temperature Precipitation Wind Pressure Humidity
    00:00 +21°C° 0 mm 3 mps 684 mmHg 34%
    01:00 +21°C° 0 mm 3 mps 684 mmHg 34%
    02:00 +21°C° 0 mm 3 mps 683 mmHg 34%
    03:00 +20°C° 0 mm 2 mps 683 mmHg 36%
    04:00 +20°C° 0 mm 2 mps 683 mmHg 37%
    05:00 +19°C° 0 mm 2 mps 683 mmHg 39%
    06:00 +21°C° 0 mm 2 mps 684 mmHg 35%
    07:00 +24°C° 0 mm 2 mps 684 mmHg 31%
    08:00 +26°C° 0 mm 2 mps 685 mmHg 27%
    09:00 +28°C° 0 mm 3 mps 685 mmHg 24%
    10:00 +29°C° 0 mm 3 mps 685 mmHg 22%
    11:00 +32°C° 0 mm 4 mps 685 mmHg 20%
    12:00 +32°C° 0 mm 4 mps 685 mmHg 19%
    13:00 +32°C° 0 mm 4 mps 684 mmHg 19%
    14:00 +33°C° 0 mm 5 mps 684 mmHg 19%
    15:00 +30°C° 0 mm 4 mps 683 mmHg 23%
    16:00 +28°C° 0 mm 3 mps 682 mmHg 28%
    17:00 +26°C° 0 mm 2 mps 682 mmHg 32%
    18:00 +25°C° 0 mm 2 mps 682 mmHg 33%
    19:00 +24°C° 0 mm 1 mps 682 mmHg 34%
    20:00 +23°C° 0 mm 1 mps 682 mmHg 35%
    21:00 +22°C° 0 mm 1 mps 681 mmHg 35%
    22:00 +22°C° 0 mm 1 mps 681 mmHg 35%
    23:00 +21°C° 0 mm 1 mps 681 mmHg 35%

    Day after tomorrow, 22 October, Tuesday

    Time Temperature Precipitation Wind Pressure Humidity
    00:00 +21°C° 0 mm 1 mps 681 mmHg 36%
    01:00 +21°C° 0 mm 1 mps 681 mmHg 37%
    02:00 +20°C° 0 mm 1 mps 680 mmHg 38%
    03:00 +20°C° 0 mm 1 mps 680 mmHg 41%
    04:00 +19°C° 0 mm 2 mps 680 mmHg 44%
    05:00 +19°C° 0 mm 2 mps 680 mmHg 46%
    06:00 +20°C° 0 mm 2 mps 681 mmHg 41%
    07:00 +23°C° 0 mm 2 mps 682 mmHg 36%
    08:00 +25°C° 0 mm 2 mps 683 mmHg 30%
    09:00 +26°C° 0 mm 3 mps 683 mmHg 27%
    10:00 +28°C° 0 mm 4 mps 683 mmHg 24%
    11:00 +29°C° 0 mm 5 mps 683 mmHg 21%
    12:00 +29°C° 0 mm 6 mps 683 mmHg 21%
    13:00 +29°C° 0 mm 7 mps 682 mmHg 21%
    14:00 +30°C° 0 mm 7 mps 682 mmHg 21%
    15:00 +28°C° 0 mm 7 mps 682 mmHg 28%
    16:00 +26°C° 0 mm 6 mps 682 mmHg 34%
    17:00 +23°C° 0 mm 5 mps 681 mmHg 40%
    18:00 +21°C° 0 mm 4 mps 681 mmHg 49%
    19:00 +19°C° 0 mm 3 mps 681 mmHg 58%
    20:00 +17°C° 0 mm 2 mps 681 mmHg 66%
    21:00 +17°C° 0 mm 2 mps 681 mmHg 69%
    22:00 +16°C° 0 mm 2 mps 681 mmHg 72%
    23:00 +16°C° 0 mm 2 mps 681 mmHg 74%

    23 October, Wednesday

    Time Temperature Precipitation Wind Pressure Humidity
    00:00 +16°C° 0 mm 2 mps 681 mmHg 75%
    01:00 +15°C° 0 mm 1 mps 680 mmHg 75%
    02:00 +15°C° 0 mm 1 mps 680 mmHg 76%
    03:00 +14°C° 0 mm 1 mps 680 mmHg 76%
    04:00 +14°C° 0 mm 1 mps 680 mmHg 77%
    05:00 +13°C° 0 mm 1 mps 680 mmHg 78%
    06:00 +16°C° 0 mm 1 mps 681 mmHg 68%
    07:00 +19°C° 0 mm 1 mps 682 mmHg 58%
    08:00 +21°C° 0 mm 1 mps 683 mmHg 48%
    09:00 +22°C° 0 mm 1 mps 683 mmHg 41%
    10:00 +24°C° 0 mm 2 mps 683 mmHg 34%
    11:00 +25°C° 0 mm 2 mps 683 mmHg 28%
    12:00 +26°C° 0 mm 3 mps 683 mmHg 27%
    13:00 +26°C° 0 mm 3 mps 683 mmHg 26%
    14:00 +27°C° 0 mm 4 mps 682 mmHg 25%
    15:00 +25°C° 0 mm 3 mps 682 mmHg 29%
    16:00 +24°C° 0 mm 3 mps 682 mmHg 34%
    17:00 +21°C° 0 mm 2 mps 681 mmHg 38%
    18:00 +20°C° 0 mm 2 mps 681 mmHg 44%
    19:00 +18°C° 0 mm 2 mps 681 mmHg 50%
    20:00 +18°C° 0 mm 1 mps 681 mmHg 56%
    21:00 +16°C° 0 mm 1 mps 681 mmHg 55%
    22:00 +16°C° 0 mm 1 mps 681 mmHg 54%
    23:00 +15°C° 0 mm 1 mps 681 mmHg 53%

    24 October, Thursday

    Time Temperature Precipitation Wind Pressure Humidity
    00:00 +15°C° 0 mm 1 mps 681 mmHg 52%
    01:00 +15°C° 0 mm 1 mps 681 mmHg 51%
    02:00 +13°C° 0 mm 0 mps 680 mmHg 50%
    03:00 +14°C° 0 mm 1 mps 680 mmHg 52%
    04:00 +14°C° 0 mm 1 mps 680 mmHg 53%
    05:00 +14°C° 0 mm 1 mps 680 mmHg 54%
    06:00 +16°C° 0 mm 1 mps 681 mmHg 48%
    07:00 +19°C° 0 mm 1 mps 682 mmHg 41%
    08:00 +22°C° 0 mm 1 mps 683 mmHg 34%
    09:00 +23°C° 0 mm 1 mps 683 mmHg 30%
    10:00 +24°C° 0 mm 2 mps 683 mmHg 26%
    11:00 +25°C° 0 mm 2 mps 684 mmHg 22%
    12:00 +26°C° 0 mm 3 mps 683 mmHg 22%
    13:00 +26°C° 0 mm 4 mps 683 mmHg 22%
    14:00 +27°C° 0 mm 4 mps 682 mmHg 22%
    15:00 +25°C° 0 mm 3 mps 682 mmHg 26%
    16:00 +23°C° 0 mm 2 mps 682 mmHg 30%
    17:00 +21°C° 0 mm 1 mps 681 mmHg 34%
    18:00 +20°C° 0 mm 1 mps 681 mmHg 38%
    19:00 +19°C° 0 mm 1 mps 681 mmHg 42%
    20:00 +16°C° 0 mm 1 mps 681 mmHg 47%
    21:00 +16°C° 0 mm 1 mps 681 mmHg 46%
    22:00 +15°C° 0 mm 1 mps 681 mmHg 45%
    23:00 +15°C° 0 mm 1 mps 681 mmHg 45%

    25 October, Friday

    Time Temperature Precipitation Wind Pressure Humidity
    00:00 +14°C° 0 mm 0 mps 681 mmHg 45%
    01:00 +13°C° 0 mm 0 mps 681 mmHg 46%
    02:00 +13°C° 0 mm 0 mps 680 mmHg 46%
    03:00 +13°C° 0 mm 0 mps 680 mmHg 47%
    04:00 +12°C° 0 mm 0 mps 680 mmHg 48%
    05:00 +12°C° 0 mm 0 mps 680 mmHg 49%
    06:00 +15°C° 0 mm 0 mps 681 mmHg 42%
    07:00 +17°C° 0 mm 0 mps 682 mmHg 36%
    08:00 +20°C° 0 mm 0 mps 683 mmHg 29%
    09:00 +23°C° 0 mm 1 mps 683 mmHg 27%
    10:00 +25°C° 0 mm 2 mps 683 mmHg 24%
    11:00 +26°C° 0 mm 3 mps 684 mmHg 22%
    12:00 +26°C° 0 mm 3 mps 683 mmHg 22%
    13:00 +26°C° 0 mm 3 mps 683 mmHg 23%
    14:00 +26°C° 0 mm 4 mps 682 mmHg 23%
    15:00 +25°C° 0 mm 3 mps 682 mmHg 29%
    16:00 +23°C° 0 mm 2 mps 682 mmHg 35%
    17:00 +20°C° 0 mm 2 mps 681 mmHg 41%
    18:00 +19°C° 0 mm 2 mps 681 mmHg 46%
    19:00 +19°C° 0 mm 1 mps 681 mmHg 51%
    20:00 +18°C° 0 mm 1 mps 681 mmHg 56%
    21:00 +16°C° 0 mm 1 mps 681 mmHg 54%
    22:00 +16°C° 0 mm 1 mps 681 mmHg 51%
    23:00 +16°C° 0 mm 1 mps 681 mmHg 49%
    Show more